EW1736 Weather Reports


time (UTC)temp
C
wind
direction
speed
KPH
gust
KPH
rain 1hr
cm
rain 24hr
cm
rain mn
cm
humidity
%
barometer
mb
20260506034118 17 125 9.7 14.5 0.00 0.43 0.43 93 1028.6
20260506034037 18 119 4.8 12.9 0.00 0.43 0.43 93 1028.6
20260506031111 17 109 8.0 12.9 0.00 0.43 0.43 92 1028.7
20260506025608 18 110 9.7 12.9 0.00 0.43 0.43 92 1028.5
20260506024109 18 118 4.8 9.7 0.00 0.43 0.43 92 1028.7
20260506022603 18 103 3.2 11.3 0.00 0.43 0.43 92 1028.7
20260506021104 18 99 4.8 11.3 0.00 0.43 0.43 92 1028.6
20260506015600 18 109 4.8 9.7 0.00 0.43 0.43 93 1028.6
20260506014057 18 89 4.8 11.3 0.00 0.43 0.43 93 1028.7
20260506012556 18 118 6.4 14.5 0.00 0.43 0.43 93 1028.6
20260506011754 18 95 3.2 11.3 0.00 0.43 0.43 94 1028.7
20260506005552 18 115 6.4 11.3 0.00 0.43 0.43 94 1028.8
20260506004048 18 91 3.2 11.3 0.00 0.43 0.43 95 1029.3
20260506002544 17 105 6.4 12.9 0.00 0.43 0.43 95 1029.3
20260506001744 17 119 4.8 9.7 0.00 0.43 0.43 95 1029.7
20260505235540 18 121 4.8 11.3 0.00 0.43 0.43 96 1029.8
20260505234039 18 111 3.2 9.7 0.00 0.43 0.43 97 1029.8
20260505232536 17 77 6.4 11.3 0.00 0.43 0.43 97 1030.0
20260505231032 17 153 3.2 8.0 0.00 0.43 0.43 98 1030.2
20260505230244 17 191 3.2 9.7 0.00 0.43 0.43 98 1030.2
20260505224029 16 155 6.4 11.3 0.00 0.43 0.43 97 1030.5
20260505222523 16 194 8.0 11.3 0.00 0.43 0.43 98 1030.4
20260505221024 16 171 6.4 12.9 0.00 0.43 0.43 98 1030.5
20260505215520 16 193 4.8 11.3 0.00 0.43 0.43 98 1030.5
20260505214016 16 195 8.0 12.9 0.00 0.43 0.43 98 1030.5
20260505212512 16 212 4.8 12.9 0.05 0.43 0.43 98 1030.6
20260505211007 16 207 9.7 12.9 0.10 0.43 0.43 98 1030.6
20260505205508 16 221 6.4 8.0 0.10 0.43 0.43 98 1030.6
20260505204003 15 210 3.2 9.7 0.10 0.43 0.43 98 1030.7
20260505202504 15 186 4.8 8.0 0.05 0.36 0.38 97 1030.7
20260505200959 15 165 3.2 6.4 0.00 0.33 0.33 97 1030.5
20260505195455 15 163 3.2 8.0 0.00 0.33 0.33 97 1030.4
20260505194651 15 187 1.6 6.4 0.00 0.33 0.33 97 1030.2
20260505192451 15 152 1.6 6.4 0.00 0.33 0.33 97 1030.1
20260505190947 15 159 3.2 8.0 0.00 0.33 0.33 97 1030.0
20260505185447 15 192 1.6 9.7 0.00 0.33 0.33 97 1030.0
20260505183945 15 205 8.0 11.3 0.03 0.33 0.33 97 1029.9
20260505182442 15 209 4.8 12.9 0.03 0.33 0.33 97 1029.7
20260505180931 15 167 8.0 16.1 0.05 0.33 0.33 97 1029.6
20260505175425 15 214 9.7 14.5 0.10 0.33 0.33 97 1029.9
20260505173925 15 188 3.2 8.0 0.23 0.30 0.30 97 1029.9
20260505172421 15 163 3.2 8.0 0.23 0.30 0.30 96 1029.9
20260505170906 15 192 1.6 8.0 0.23 0.28 0.28 96 1030.0
20260505165407 15 236 4.8 11.3 0.15 0.23 0.23 96 1029.9
20260505163858 15 204 8.0 11.3 0.03 0.08 0.08 96 1029.8
20260505162358 15 196 6.4 11.3 0.00 0.05 0.05 96 1029.8
20260505160854 15 190 8.0 12.9 0.00 0.05 0.05 96 1029.8
20260505152352 15 198 8.0 14.5 0.05 0.05 0.05 95 1030.0
20260505151539 15 159 8.0 11.3 0.05 0.05 0.05 95 1030.2
20260505123812 15 192 8.0 14.5 0.00 0.00 0.00 91 1031.4
20260505122312 16 207 9.7 14.5 0.00 0.00 0.00 90 1031.5
20260505121503 16 188 9.7 12.9 0.00 0.00 0.00 90 1031.5
20260505115310 15 164 3.2 11.3 0.00 0.00 0.00 90 1031.5
20260505113806 16 176 6.4 12.9 0.00 0.00 0.00 90 1031.5
20260505112304 16 211 8.0 12.9 0.00 0.00 0.00 90 1031.7
20260505110800 16 186 4.8 9.7 0.00 0.00 0.00 89 1031.9
20260505100748 16 202 6.4 11.3 0.00 0.00 0.00 89 1032.1
20260505095248 16 193 6.4 11.3 0.00 0.00 0.00 89 1032.2
20260505093743 16 175 6.4 9.7 0.00 0.00 0.00 89 1032.2
20260505093646 16 149 3.2 11.3 0.00 0.00 0.00 89 1032.2
20260505090740 17 103 3.2 9.7 0.00 0.00 0.00 90 1032.1
20260505085241 17 121 3.2 9.7 0.00 0.00 0.00 90 1032.1
20260505083737 17 44 0.0 9.7 0.00 0.00 0.00 89 1032.1
20260505082236 16 97 3.2 9.7 0.00 0.00 0.00 89 1032.0
20260505080732 16 155 1.6 4.8 0.00 0.00 0.00 87 1032.0
20260505075932 17 144 1.6 3.2 0.00 0.00 0.00 87 1032.0
20260505073723 17 146 3.2 9.7 0.00 0.00 0.00 87 1031.9
20260505072219 17 107 3.2 6.4 0.00 0.00 0.00 87 1031.9
20260505070724 17 86 4.8 11.3 0.00 0.00 0.00 87 1031.8
20260505065216 17 101 4.8 11.3 0.00 0.00 0.00 86 1031.8
20260505063716 17 93 4.8 11.3 0.00 0.00 0.00 86 1031.7
20260505062213 17 91 4.8 14.5 0.00 0.00 0.00 85 1031.6
20260505060713 17 93 6.4 12.9 0.00 0.00 0.00 85 1031.5
20260505055207 17 75 6.4 16.1 0.00 0.00 0.00 84 1031.4
20260505053708 17 114 8.0 12.9 0.00 0.00 0.00 83 1031.5
20260505052159 17 99 6.4 11.3 0.00 0.00 0.00 83 1031.5
20260505050707 17 94 6.4 11.3 0.00 0.00 0.00 82 1031.6
20260505040653 17 122 6.4 12.9 0.00 0.00 0.00 82 1031.8
20260505035144 17 136 6.4 12.9 0.00 0.00 0.00 81 1031.8